Weather History for K2C8 - February, 2013

Change the Weather History Date:

Monday, February 18, 2013

  Actual Average (KGFK) Record (KGFK)
Temperature  
Mean Temperature 8 °F 13 °F  
Max Temperature 23 °F 23 °F 45 °F (2002)
Min Temperature -7 °F 3 °F -35 °F (1967)
Degree Days  
Heating Degree Days 57 52  
Month to date heating degree days 985  
Since 1 July heating degree days 6651  
Cooling Degree Days 0 0  
Month to date cooling degree days 0  
Year to date cooling degree days 0  
Moisture  
Dew Point 0 °F    
Average Humidity 83    
Maximum Humidity 100    
Minimum Humidity 65    
Precipitation  
Precipitation 3.50 in 0.02 in 0.09 in (1986)
Month to date precipitation 0.28  
Year to date precipitation 0.83  
Snow  
Snow 0.00 in 0.20 in - ()
Month to date snowfall 3.9  
Since 1 July snowfall 34.5  
Snow Depth -    
Sea Level Pressure  
Sea Level Pressure 29.92 in    
Wind  
Wind Speed 27 mph (NNW)    
Max Wind Speed 34 mph    
Max Gust Speed 54 mph    
Visibility 1 miles    
Events Rain , Snow    
T = Trace of Precipitation, MM = Missing Value Source: NWS Daily Summary

Daily Weather History Graph

Daily Weather History Graph

Search for Another Location

Airport or City:

Trip Planner

Search our weather history database for the weather conditions in past years. The results will help you decide how hot, cold, wet, or windy it might be!

Date:

Astronomy

Feb. 18, 2013 Rise Set
Actual Time 7:32 AM CST 5:56 PM CST
Civil Twilight 7:00 AM CST 6:29 PM CST
Nautical Twilight 6:23 AM CST 7:05 PM CST
Astronomical Twilight 5:47 AM CST 7:42 PM CST
Moon 11:28 AM CST (2/18) 2:27 AM CST (2/18)
Length of Visible Light 11h 28m
Length of Day
10h 24m
First Quarter, 58% of the Moon is Illuminated
Feb 18
First Quarter
Feb 25
Full
Mar 4
Last Quarter
Mar 11
New
Mar 19
First Quarter

Hourly Weather History & Observations

Time (CST) Temp. Windchill Dew Point Humidity Pressure Visibility Wind Dir Wind Speed Gust Speed Precip Events Conditions
12:15 AM 23.0 °F 7.6 °F 23.0 °F 100% 29.54 in 1.0 mi NNW 21.9 mph 27.6 mph 0.05 in Snow Light Snow
12:35 AM 23.0 °F 8.7 °F 23.0 °F 100% 29.55 in 1.5 mi NNW 18.4 mph 29.9 mph 0.12 in Snow Light Snow
12:55 AM 23.0 °F 7.2 °F 23.0 °F 100% 29.55 in 1.5 mi NNW 23.0 mph 29.9 mph 0.18 in Snow Light Snow
1:15 AM 23.0 °F 7.6 °F 23.0 °F 100% 29.56 in 0.8 mi North 21.9 mph 31.1 mph 0.07 in Snow Light Snow
1:35 AM 23.0 °F 7.6 °F 23.0 °F 100% 29.57 in 0.5 mi North 21.9 mph 32.2 mph 0.17 in Snow Snow
1:55 AM 23.0 °F 7.2 °F 21.2 °F 93% 29.58 in 0.5 mi North 23.0 mph 39.1 mph 0.25 in Snow Snow
2:15 AM 21.2 °F 4.5 °F 19.4 °F 93% 29.59 in 0.5 mi North 24.2 mph 35.7 mph 0.07 in Snow Snow
2:35 AM 19.4 °F 1.1 °F 19.4 °F 100% 29.59 in 0.2 mi North 27.6 mph 39.1 mph 0.19 in Snow Heavy Snow
2:55 AM 19.4 °F 0.2 °F 17.6 °F 93% 29.61 in 0.5 mi North 31.1 mph 41.4 mph 0.28 in Snow Snow
3:15 AM 19.4 °F 1.4 °F 17.6 °F 93% 29.62 in 0.2 mi North 26.5 mph 40.3 mph 0.05 in Snow Heavy Snow
3:35 AM 17.6 °F -1.3 °F 15.8 °F 93% 29.64 in 0.2 mi North 27.6 mph 43.7 mph 0.10 in Snow Heavy Snow
3:55 AM 15.8 °F -3.7 °F 14.0 °F 93% 29.66 in 0.2 mi NNW 27.6 mph 41.4 mph 0.17 in Snow Heavy Snow
4:15 AM 14.0 °F -7.1 °F 12.2 °F 93% 29.67 in 0.2 mi NNW 31.1 mph 41.4 mph 0.06 in Snow Heavy Snow
4:35 AM 14.0 °F -7.4 °F 10.4 °F 86% 29.69 in 0.2 mi NNW 32.2 mph 43.7 mph 0.53 in Snow Heavy Snow
4:55 AM 10.4 °F -12.0 °F 8.6 °F 92% 29.70 in 0.2 mi NNW 31.1 mph 42.6 mph 0.66 in Snow Heavy Snow
5:15 AM 10.4 °F -12.0 °F 8.6 °F 92% 29.72 in 0.2 mi NNW 31.1 mph 42.6 mph 0.04 in Snow Heavy Snow
5:35 AM 10.4 °F -12.3 °F 6.8 °F 85% 29.74 in 0.2 mi NNW 32.2 mph 42.6 mph 0.11 in Snow Heavy Snow
5:55 AM 8.6 °F -14.5 °F 6.8 °F 92% 29.76 in 0.2 mi NNW 31.1 mph 42.6 mph 0.19 in Snow Heavy Snow
6:15 AM 8.6 °F -15.4 °F 6.8 °F 92% 29.76 in 0.2 mi NNW 34.5 mph 47.2 mph 0.05 in Snow Heavy Snow
6:35 AM 8.6 °F -14.5 °F 5.0 °F 85% 29.78 in 0.2 mi NNW 31.1 mph 41.4 mph 0.10 in Snow Heavy Snow
6:55 AM 8.6 °F -14.5 °F 5.0 °F 85% 29.79 in 0.2 mi NNW 31.1 mph 41.4 mph 0.17 in Snow Heavy Snow
7:15 AM 6.8 °F -16.2 °F 5.0 °F 92% 29.80 in 0.2 mi NNW 28.8 mph 36.8 mph 0.03 in Snow Heavy Snow
7:35 AM 6.8 °F -16.9 °F 3.2 °F 85% 29.81 in 0.2 mi NNW 31.1 mph 48.3 mph 0.07 in Snow Heavy Snow
7:55 AM 6.8 °F -15.5 °F 3.2 °F 85% 29.82 in 0.2 mi NNW 26.5 mph 44.9 mph 0.11 in Snow Heavy Snow
8:15 AM 6.8 °F -17.3 °F 1.4 °F 79% 29.84 in 0.2 mi NNW 32.2 mph 40.3 mph 0.02 in Snow Heavy Snow
8:35 AM 6.8 °F -17.3 °F 1.4 °F 79% 29.85 in 0.2 mi North 32.2 mph 43.7 mph 0.05 in Snow Heavy Snow
8:55 AM 5.0 °F -19.0 °F 1.4 °F 85% 29.86 in 0.2 mi North 29.9 mph 43.7 mph 0.08 in Snow Heavy Snow
9:15 AM 5.0 °F -18.7 °F -0.4 °F 78% 29.87 in 0.2 mi NNW 28.8 mph 40.3 mph 0.02 in Snow Heavy Snow
9:35 AM 5.0 °F -20.1 °F -0.4 °F 78% 29.88 in 0.2 mi North 33.4 mph 42.6 mph 0.04 in Snow Heavy Snow
9:55 AM 3.2 °F -22.2 °F -0.4 °F 85% 29.89 in 0.2 mi NNW 32.2 mph 42.6 mph 0.07 in Snow Heavy Snow
10:15 AM 1.4 °F -25.3 °F -2.2 °F 85% 29.90 in 0.2 mi North 34.5 mph 47.2 mph 0.02 in Snow Heavy Snow
10:35 AM 1.4 °F -24.6 °F -2.2 °F 85% 29.91 in 0.2 mi NNW 32.2 mph 44.9 mph 0.04 in Snow Heavy Snow
10:55 AM 1.4 °F -24.6 °F -2.2 °F 85% 29.92 in 0.2 mi NNW 32.2 mph 54.1 mph 0.06 in Snow Heavy Snow
11:15 AM 1.4 °F -23.2 °F -2.2 °F 85% 29.94 in 0.2 mi North 27.6 mph 43.7 mph 0.01 in Snow Heavy Snow
11:35 AM 1.4 °F -23.2 °F -4.0 °F 78% 29.94 in 0.2 mi NNW 27.6 mph 42.6 mph 0.03 in Snow Heavy Snow
11:55 AM -0.4 °F -27.1 °F -4.0 °F 85% 29.95 in 0.2 mi NNW 32.2 mph 42.6 mph 0.06 in Snow Heavy Snow
12:15 PM -0.4 °F -27.1 °F -4.0 °F 85% 29.96 in 0.2 mi NNW 32.2 mph 47.2 mph 0.02 in Snow Heavy Snow
12:35 PM -0.4 °F -26.7 °F -4.0 °F 85% 29.97 in 0.2 mi NNW 31.1 mph 46.0 mph 0.07 in Snow Heavy Snow
12:55 PM -0.4 °F -27.1 °F -4.0 °F 85% 29.97 in 0.2 mi NNW 32.2 mph 43.7 mph 0.17 in Snow Heavy Snow
1:15 PM -0.4 °F -27.5 °F -4.0 °F 85% 29.98 in 0.2 mi North 33.4 mph 46.0 mph 0.07 in Snow Heavy Snow
1:35 PM -0.4 °F -26.7 °F -4.0 °F 85% 29.98 in 0.2 mi NNW 31.1 mph 40.3 mph 0.12 in Snow Heavy Snow
1:55 PM -0.4 °F -26.7 °F -5.8 °F 78% 29.99 in 0.5 mi North 31.1 mph 44.9 mph 0.17 in Snow Snow
2:15 PM -0.4 °F -25.2 °F -5.8 °F 78% 30.00 in 0.2 mi NNW 26.5 mph 41.4 mph 0.06 in Snow Heavy Snow
2:35 PM -0.4 °F -26.0 °F -5.8 °F 78% 30.00 in 0.2 mi NNW 28.8 mph 44.9 mph 0.13 in Snow Heavy Snow
2:55 PM -0.4 °F -26.7 °F -5.8 °F 78% 30.01 in 0.2 mi North 31.1 mph 39.1 mph 0.23 in Snow Heavy Snow
3:15 PM -0.4 °F -26.4 °F -5.8 °F 78% 30.02 in 0.2 mi NNW 29.9 mph 38.0 mph 0.04 in Snow Heavy Snow
3:35 PM -0.4 °F -24.3 °F -5.8 °F 78% 30.03 in 0.2 mi NNW 24.2 mph 42.6 mph 0.10 in Snow Heavy Snow
3:55 PM -0.4 °F -26.7 °F -5.8 °F 78% 30.04 in 0.2 mi North 31.1 mph 43.7 mph 0.18 in Rain Light Freezing Rain
4:15 PM -0.4 °F -27.5 °F -5.8 °F 78% 30.04 in 0.2 mi North 33.4 mph 41.4 mph 0.04 in Rain Light Freezing Rain
4:35 PM -0.4 °F -24.7 °F -5.8 °F 78% 30.05 in 0.2 mi North 25.3 mph 41.4 mph 0.14 in Rain Light Freezing Rain
4:55 PM -0.4 °F -26.4 °F -5.8 °F 78% 30.06 in 0.2 mi North 29.9 mph 40.3 mph 0.19 in Rain Light Freezing Rain
5:15 PM -0.4 °F -26.4 °F -5.8 °F 78% 30.07 in 0.5 mi NNW 29.9 mph 41.4 mph 0.02 in Rain Light Freezing Rain
5:35 PM -0.4 °F -24.3 °F -5.8 °F 78% 30.09 in 0.2 mi North 24.2 mph 40.3 mph 0.07 in Rain Light Freezing Rain
5:55 PM -0.4 °F -25.6 °F -5.8 °F 78% 30.10 in 0.2 mi North 27.6 mph 36.8 mph 0.11 in Rain Light Freezing Rain
6:15 PM -0.4 °F -26.7 °F -5.8 °F 78% 30.11 in 0.2 mi North 31.1 mph 42.6 mph 0.02 in Rain Light Freezing Rain
6:35 PM -0.4 °F -26.4 °F -5.8 °F 78% 30.12 in 0.8 mi North 29.9 mph 41.4 mph 0.05 in Rain Light Freezing Rain
6:55 PM -0.4 °F -26.0 °F -5.8 °F 78% 30.13 in 1.0 mi North 28.8 mph 35.7 mph 0.08 in Rain Light Freezing Rain
7:15 PM -0.4 °F -24.7 °F -5.8 °F 78% 30.14 in 1.2 mi NNW 25.3 mph 41.4 mph N/A Snow Light Snow
7:35 PM -0.4 °F -25.6 °F -7.6 °F 72% 30.15 in 1.0 mi NNW 27.6 mph 39.1 mph 0.02 in Rain Light Freezing Rain
7:55 PM -2.2 °F -27.1 °F -7.6 °F 78% 30.16 in 1.2 mi NNW 25.3 mph 35.7 mph 0.04 in Snow Light Snow
8:15 PM -2.2 °F -27.6 °F -7.6 °F 78% 30.16 in 1.2 mi North 26.5 mph 34.5 mph N/A Rain Light Freezing Rain
8:35 PM -2.2 °F -27.6 °F -7.6 °F 78% 30.17 in 2.5 mi NNW 26.5 mph 33.4 mph 0.01 in Rain Light Freezing Rain
8:55 PM -2.2 °F -28.0 °F -9.4 °F 71% 30.18 in 1.5 mi NNW 27.6 mph 36.8 mph 0.02 in Rain Light Freezing Rain
9:15 PM -2.2 °F -28.0 °F -9.4 °F 71% 30.18 in 3.0 mi North 27.6 mph 34.5 mph N/A Rain Light Freezing Rain
9:35 PM -4.0 °F -30.0 °F -11.2 °F 71% 30.19 in 4.0 mi NNW 26.5 mph 35.7 mph 0.01 in Rain Light Freezing Rain
9:55 PM -4.0 °F -30.0 °F -11.2 °F 71% 30.19 in 5.0 mi NNW 26.5 mph 33.4 mph 0.01 in Rain Light Freezing Rain
10:15 PM -4.0 °F -28.6 °F -13.0 °F 65% 30.20 in 1.8 mi NNW 23.0 mph 33.4 mph N/A Rain Light Freezing Rain
10:35 PM -5.8 °F -31.0 °F -13.0 °F 71% 30.21 in 3.0 mi NNW 23.0 mph 32.2 mph 0.01 in Rain Light Freezing Rain
10:55 PM -5.8 °F -30.5 °F -13.0 °F 71% 30.22 in 4.0 mi NNW 21.9 mph 33.4 mph 0.01 in Rain Light Freezing Rain
11:15 PM -5.8 °F -32.0 °F -14.8 °F 65% 30.22 in 3.0 mi NNW 25.3 mph 33.4 mph N/A Rain Light Freezing Rain
11:35 PM -7.6 °F -32.9 °F -14.8 °F 71% 30.23 in 2.5 mi NNW 21.9 mph 31.1 mph 0.01 in Rain Light Freezing Rain
11:55 PM -7.6 °F -32.9 °F -14.8 °F 71% 30.24 in 2.0 mi NNW 21.9 mph 31.1 mph 0.01 in Rain Light Freezing Rain